Location: Bacharowice
(49.9333°N, 19.5833°E)
Time: 22:58:10
(UTC+00:00)

Cosmos 1536 - Pass Details

Date: 11 May 2021
Orbit: 539 x 558 km, 82.5° (Epoch: 21 June)

Event Time Altitude Azimuth Distance (km) Brightness Sun altitude
Rises 21:03:48 0° 345° (NNW) 2,750 8.0 -18.8°
Reaches altitude 10° 21:06:02 10° 340° (NNW) 1,847 6.8 -19.0°
Maximum altitude 21:09:56 48° 266° (W) 734 3.5 -19.2°
Enters shadow 21:11:17 33° 215° (SW) 937 3.7 -19.3°
